This is the latest recevied weather packets stored in our database for station/object IW1RID-3. If no packets are shown the sender has not sent any weather packets the latest 10 day(s).
| Time | Temp. | Humidity | Pressure | Rain* | Wind** | Luminosity | Snow |
|---|---|---|---|---|---|---|---|
| 1788514732 | 27.78° C | 80% | 1078.1 hPa | - | - | - | - |
| 1788513528 | 27.22° C | 81% | 1077.8 hPa | - | - | - | - |
| 1788512323 | 27.22° C | 81% | 1077.7 hPa | - | - | - | - |
| 1788511119 | 26.67° C | 79% | 1077.6 hPa | - | - | - | - |
| 1788509914 | 26.11° C | 79% | 1077.3 hPa | - | - | - | - |
| 1788508710 | 25.56° C | 75% | 1077.4 hPa | - | - | - | - |
| 1788507506 | 24.44° C | 74% | 1077.2 hPa | - | - | - | - |
| 1788506301 | 23.33° C | 77% | 1077.3 hPa | - | - | - | - |
| 1788503892 | 21.67° C | 81% | 1077.3 hPa | - | - | - | - |
| 1788502688 | 21.67° C | 80% | 1077.3 hPa | - | - | - | - |
| 1788501483 | 21.11° C | 83% | 1077.1 hPa | - | - | - | - |
| 1788500279 | 21.11° C | 83% | 1076.8 hPa | - | - | - | - |
| 1788499074 | 20.56° C | 84% | 1076.7 hPa | - | - | - | - |
| 1788497869 | 21.11° C | 84% | 1076.7 hPa | - | - | - | - |
| 1788496665 | 20.56° C | 84% | 1076.7 hPa | - | - | - | - |
| 1788495461 | 21.11° C | 82% | 1076.7 hPa | - | - | - | - |
| 1788494256 | 21.11° C | 83% | 1076.5 hPa | - | - | - | - |
| 1788493072 | 21.11° C | 84% | 1076.8 hPa | - | - | - | - |
| 1788491847 | 21.67° C | 80% | 1076.7 hPa | - | - | - | - |
| 1788490642 | 21.67° C | 82% | 1076.7 hPa | - | - | - | - |
| 1788489437 | 21.67° C | 83% | 1076.5 hPa | - | - | - | - |
| 1788488233 | 21.67° C | 82% | 1076.5 hPa | - | - | - | - |
| 1788487028 | 21.67° C | 85% | 1076.5 hPa | - | - | - | - |
| 1788485824 | 22.22° C | 82% | 1076.5 hPa | - | - | - | - |
| 1788484619 | 22.78° C | 82% | 1076.2 hPa | - | - | - | - |
* Rain since midnight (hover to see other rain measurements)
** Current wind speed in m/s (hover to see current wind gust speed)